Location: Thunder Bay
(48.3809°N, 89.2477°W)
Time: 12:07:05
(UTC-04:00)

Envisat - Visible Passes

Search period start: 04 August 2021 00:00
Search period end: 14 August 2021 00:00
Orbit: 764 x 766 km, 98.2° (Epoch: 03 August)

Date Brightness Start Highest point End Pass type
(mag) Time Alt. Az. Time Alt. Az. Time Alt. Az.
06 Aug 5.8 06:00:54 10° NE 06:04:05 16° E 06:07:16 10° SE visible
09 Aug 5.9 05:50:04 10° ENE 05:52:26 13° E 05:54:48 10° ESE visible
12 Aug 6.3 05:40:08 10° ENE 05:40:46 10° E 05:41:24 10° E visible
